[[{"header":{"parameterUnit":"m.s-1","parameterCategory":2,"la1":30.2991,"la2":30.254,"lo1":-89.0895,"lo2":-89.0444,"dy":0.0017,"dx":0.0017,"nx":28,"ny":28,"refTime":"2024-05-25T21:00:00:Z","depth":"0","parameterNumber":2,"parameterNumberName":"U-component_of_CURRENTS"},"data":[0,0,0,0,0,0,0,0,0,0,0,0,0,0,0,0,0,0,0,0,0,0,0,0,0,0,0,0,0,0,0,0,0,0,0,0,0,0,0,0,0,0,0,0,0,0,0,0,0,0,0,0,0,0,0,0,0,0,-0.2955,-0.2956,0,-0.2993,-0.2993,-0.2993,-0.2964,-0.2963,-0.2962,-0.2961,-0.2921,-0.292,-0.292,0,0,0,0,0,0,0,0,0,0,0,0,0,-0.2836,-0.2838,-0.2955,-0.2956,-0.2957,-0.2993,-0.2993,-0.2993,-0.2964,-0.2963,-0.2962,-0.2961,-0.2921,-0.2921,-0.292,0,0,0,0,0,0,0,0,0,0,0,0,0,-0.2878,-0.2839,-0.2955,-0.2949,-0.295,-0.2993,-0.2993,-0.2993,-0.2964,-0.2963,-0.2962,-0.296,-0.2921,-0.2921,-0.292,-0.2944,0,0,-0.2919,-0.2919,0,0,0,0,0,0,0,0,-0.2876,-0.2882,-0.2949,-0.295,-0.295,-0.2976,-0.2937,-0.2974,-0.2964,-0.2954,-0.2961,-0.296,-0.2936,-0.2934,-0.2939,-0.2942,-0.294,-0.2919,-0.2919,-0.2919,-0.2918,0,0,0,0,0,0,0,-0.2873,-0.288,-0.2965,-0.2951,-0.2951,-0.2939,-0.2943,-0.2944,-0.2947,-0.2955,-0.2954,-0.2966,-0.2935,-0.294,-0.2938,-0.294,-0.2919,-0.2919,-0.2918,-0.2918,-0.2957,-0.2959,0,0,0,0,0,0,-0.288,-0.2878,-0.2964,-0.2967,-0.2914,-0.2942,-0.2947,-0.2966,-0.2949,-0.2947,-0.2967,-0.2964,-0.2941,-0.2938,-0.2936,-0.2962,-0.2919,-0.2918,-0.2918,-0.2956,-0.2958,-0.2959,0,0,0,0,0,0,-0.2878,-0.2888,-0.2963,-0.2926,-0.2935,-0.2946,-0.2967,-0.2967,-0.2969,-0.2959,-0.2954,-0.2969,-0.294,-0.2937,-0.2942,-0.296,-0.2918,-0.2918,-0.2955,-0.2957,-0.2958,-0.3014,0,0,0,0,0,0,-0.2874,-0.2887,-0.2896,-0.2927,-0.2938,-0.299,-0.2969,-0.2969,-0.2981,-0.2977,-0.296,-0.2955,-0.2939,-0.2943,-0.2942,-0.2958,-0.2917,-0.2953,-0.2956,-0.2958,-0.301,-0.3017,-0.3023,0,0,0,0,0,-0.287,-0.2891,-0.2896,-0.2907,-0.2953,-0.2991,-0.2995,-0.2995,-0.2982,-0.299,-0.298,-0.2955,-0.2957,-0.2944,-0.2942,-0.2959,-0.2952,-0.2955,-0.2958,-0.3008,-0.3016,-0.3023,0,0,0,0,0,0,-0.2839,-0.2892,-0.2898,-0.2932,-0.2961,-0.2988,-0.2996,-0.3,-0.3001,-0.2993,-0.2973,-0.2969,-0.2979,-0.2967,-0.2953,-0.2979,-0.295,-0.2953,-0.2989,-0.2997,-0.3003,-0.2997,-0.2917,0,0,0,0,0,-0.2841,-0.2869,-0.2915,-0.2938,-0.2956,-0.2977,-0.299,-0.2997,-0.3007,-0.3006,-0.2996,-0.2989,-0.2993,-0.2991,-0.2989,-0.3006,-0.2981,-0.3016,-0.3023,-0.3028,-0.3024,-0.3013,-0.3018,-0.2968,-0.2968,-0.2968,0,0,-0.2831,-0.2866,-0.2878,-0.2933,-0.2951,-0.2992,-0.2979,-0.3008,-0.3034,-0.3002,-0.3019,-0.3009,-0.3002,-0.302,-0.3023,-0.3009,-0.303,-0.3032,-0.3037,-0.3029,-0.3016,-0.3021,-0.3025,-0.297,-0.297,-0.297,0,0,-0.2837,-0.2862,-0.2892,-0.2929,-0.2975,-0.2995,-0.3006,-0.304,-0.3045,-0.3072,-0.3054,-0.3057,-0.3062,-0.3062,-0.3063,-0.3106,-0.3064,-0.3106,-0.3134,-0.3125,-0.3128,-0.3131,-0.3106,-0.3106,-0.311,-0.311,-0.311,0,-0.2819,-0.2875,-0.2904,-0.2952,-0.2982,-0.3001,-0.3042,-0.3062,-0.3089,-0.3096,-0.3082,-0.3092,-0.3085,-0.3106,-0.3121,-0.312,-0.3099,-0.3105,-0.3132,-0.3134,-0.3136,-0.3109,-0.3109,-0.3113,-0.3113,-0.3113,-0.3112,0,-0.2862,-0.2906,-0.2928,-0.2996,-0.3029,-0.3067,-0.3111,-0.313,-0.3136,-0.315,-0.3165,-0.3157,-0.3157,-0.3164,-0.3157,-0.3173,-0.3148,-0.3139,-0.3109,-0.3144,-0.3114,-0.3112,-0.3118,-0.3117,-0.3116,-0.3115,0,0,-0.2809,-0.2935,-0.2937,-0.2979,-0.3058,-0.3086,-0.3137,-0.3182,-0.3201,-0.3216,-0.3233,-0.3246,-0.3225,-0.3225,-0.3212,-0.3209,-0.3209,-0.3182,-0.318,-0.3151,-0.3172,-0.3066,-0.3053,-0.3202,-0.3202,-0.3202,-0.3146,0,-0.2826,-0.2921,-0.298,-0.3051,-0.31,-0.3147,-0.3192,-0.3231,-0.3248,-0.3267,-0.3265,-0.3271,-0.3255,-0.3247,-0.3245,-0.3222,-0.3206,-0.3224,-0.3147,-0.3144,-0.3041,-0.3049,-0.2915,-0.2845,-0.3143,-0.3143,-0.3143,0,-0.2835,-0.2904,-0.2984,-0.3087,-0.311,-0.315,-0.3206,-0.3251,-0.3291,-0.3304,-0.3311,-0.3302,-0.3307,-0.328,-0.325,-0.3259,-0.3215,-0.3191,-0.3188,-0.3065,-0.3034,-0.2859,-0.283,-0.2805,-0.314,-0.314,-0.314,0,-0.2766,-0.2893,-0.2953,-0.2992,-0.3114,-0.3141,-0.319,-0.3245,-0.3274,-0.3312,-0.332,-0.3329,-0.3315,-0.3287,-0.3232,-0.3243,-0.318,-0.3188,-0.3048,-0.304,-0.2896,-0.2874,-0.2824,-0.3148,-0.3148,-0.3148,-0.3148,0,-0.2752,-0.2791,-0.2925,-0.2957,-0.3009,-0.3104,-0.314,-0.3193,-0.3255,-0.3279,-0.3316,-0.3314,-0.3313,-0.3277,-0.3237,-0.3124,-0.3178,-0.3041,-0.3015,-0.2911,-0.2893,-0.2839,-0.2881,-0.3146,-0.3146,-0.3147,-0.3147,0,-0.2647,-0.2749,-0.2815,-0.2944,-0.2977,-0.3,-0.3101,-0.3141,-0.3204,-0.3233,-0.3244,-0.3293,-0.3245,-0.3214,-0.316,-0.3102,-0.2968,-0.2966,-0.2834,-0.2792,-0.2636,-0.2687,-0.2617,-0.2545,-0.2813,-0.281,-0.2807,0,-0.2597,-0.2629,-0.2759,-0.28,-0.2852,-0.2913,-0.2968,-0.3082,-0.3128,-0.3204,-0.3216,-0.3196,-0.314,-0.3024,-0.2933,-0.282,-0.2829,-0.2635,-0.2629,-0.2594,-0.2633,-0.2681,-0.263,-0.2467,-0.2462,-0.2458,-0.2455,0,-0.2493,-0.254,-0.2607,-0.2666,-0.2734,-0.2783,-0.2867,-0.2886,-0.3016,-0.3046,-0.3026,-0.2983,-0.2913,-0.2748,-0.2638,-0.2555,-0.2576,-0.2543,-0.2545,-0.2382,-0.2394,-0.2321,-0.2545,-0.2418,-0.2421,-0.2424,-0.2426,-0.2428,-0.239,-0.2404,-0.2479,-0.2495,-0.2562,-0.2552,-0.247,-0.2583,-0.2575,-0.2501,-0.2755,-0.2628,-0.2603,-0.2419,-0.2352,-0.2193,-0.2292,-0.2116,-0.2186,-0.2243,-0.2149,-0.2278,-0.21,-0.2102,-0.2104,-0.2105,-0.2106,0,-0.2244,-0.2269,-0.2299,-0.2271,-0.2191,-0.2302,-0.2311,-0.2156,-0.2004,-0.2123,-0.209,-0.2191,-0.2086,-0.2071,-0.1992,-0.1884,-0.1856,-0.183,-0.1881,-0.1849,-0.1971,-0.1928,-0.1658,-0.1658,-0.1658,-0.1658,-0.1658,-0.1658,-0.2179,-0.2132,-0.2113,-0.1863,-0.1821,-0.1626,-0.1542,-0.138,-0.1344,-0.1248,-0.1339,-0.1434,-0.1708,-0.197,-0.1874,-0.1767,-0.1748,-0.1672,-0.1732,-0.1845,-0.1878,-0.191,-0.1877,-0.16,-0.16,-0.1515,-0.1515,-0.1515]},{"header":{"parameterUnit":"m.s-1","parameterCategory":2,"la1":30.2991,"la2":30.254,"lo1":-89.0895,"lo2":-89.0444,"dy":0.0017,"dx":0.0017,"nx":28,"ny":28,"refTime":"2024-05-25T21:00:00:Z","depth":"0","parameterNumber":3,"parameterNumberName":"V-component_of_CURRENTS"},"data":[0,0,0,0,0,0,0,0,0,0,0,0,0,0,0,0,0,0,0,0,0,0,0,0,0,0,0,0,0,0,0,0,0,0,0,0,0,0,0,0,0,0,0,0,0,0,0,0,0,0,0,0,0,0,0,0,0,0,-0.0062,-0.0061,0,0.0053,0.0054,0.0056,0.0141,0.0142,0.0143,0.0143,0.0291,0.0295,0.0298,0,0,0,0,0,0,0,0,0,0,0,0,0,-0.0141,-0.014,-0.0062,-0.006,-0.0059,0.0053,0.0054,0.0056,0.0141,0.0142,0.0143,0.0144,0.029,0.0294,0.0298,0,0,0,0,0,0,0,0,0,0,0,0,0,-0.0073,-0.014,-0.0062,-0.0004,0.0002,0.0052,0.0055,0.0057,0.0141,0.0142,0.0143,0.0144,0.0289,0.0294,0.0299,0.0311,0,0,0.0314,0.0316,0,0,0,0,0,0,0,0,-0.0077,-0.007,-0.0014,-0.0008,-0.0001,0.0082,0.0081,0.0143,0.0141,0.009,0.0143,0.0144,0.0223,0.0233,0.0255,0.0318,0.0325,0.0315,0.0318,0.032,0.0321,0,0,0,0,0,0,0,-0.0082,-0.0074,-0.0015,-0.0013,-0.0005,0.0038,0.0048,0.0093,0.0152,0.0094,0.0101,0.011,0.0227,0.025,0.0259,0.0327,0.0315,0.0319,0.0322,0.0324,0.0429,0.0429,0,0,0,0,0,0,-0.0104,-0.0079,-0.0018,-0.0011,-0.004,0.0038,0.005,0.0056,0.0151,0.0165,0.011,0.0114,0.024,0.0253,0.0264,0.0288,0.032,0.0325,0.0328,0.0429,0.0429,0.0429,0,0,0,0,0,0,-0.0106,-0.01,-0.0023,-0.0044,-0.0031,0.0038,0.0045,0.0058,0.008,0.0161,0.0177,0.0118,0.0242,0.0257,0.0302,0.0294,0.0327,0.0332,0.043,0.0429,0.0429,0.0334,0,0,0,0,0,0,-0.0109,-0.0102,-0.0109,-0.0045,-0.0031,-0.0006,0.0044,0.0059,0.0084,0.0091,0.0174,0.0189,0.0244,0.0293,0.0306,0.0302,0.0335,0.043,0.0429,0.0429,0.0337,0.033,0.0324,0,0,0,0,0,-0.0112,-0.0132,-0.0111,-0.0103,-0.0042,-0.0007,0.0004,0.0058,0.0083,0.0084,0.0145,0.0187,0.03,0.0297,0.0313,0.0309,0.043,0.043,0.0429,0.034,0.0331,0.0324,0,0,0,0,0,0,-0.0172,-0.0123,-0.0099,-0.0102,-0.0063,0.0006,0.0009,0.0048,0.0096,0.0103,0.0183,0.0201,0.0234,0.0285,0.028,0.0339,0.0372,0.0375,0.0299,0.0292,0.0285,0.0261,0.034,0,0,0,0,0,-0.019,-0.0191,-0.0134,-0.0138,-0.0124,-0.0059,-0.004,-0.0003,0.005,0.0072,0.0132,0.0195,0.0243,0.0277,0.0322,0.0357,0.0416,0.0366,0.0359,0.0354,0.0344,0.043,0.043,0.0427,0.0427,0.0427,0,0,-0.0215,-0.0189,-0.0189,-0.0151,-0.0117,-0.0107,-0.0045,-0.0025,-0.001,0.008,0.0111,0.0166,0.0244,0.028,0.03,0.0324,0.0386,0.0353,0.0347,0.0341,0.043,0.043,0.043,0.0427,0.0427,0.0427,0,0,-0.0274,-0.0243,-0.0266,-0.0237,-0.0196,-0.0152,-0.0152,-0.0088,-0.0054,-0.0018,0.0049,0.0104,0.0175,0.0239,0.0278,0.0266,0.0339,0.0274,0.0234,0.0316,0.0317,0.0319,0.0393,0.0402,0.0282,0.0282,0.0282,0,-0.031,-0.0323,-0.0268,-0.0277,-0.0259,-0.018,-0.0192,-0.0147,-0.0076,-0.0046,-0.0024,0.0096,0.016,0.0224,0.0216,0.0251,0.0302,0.0255,0.0307,0.031,0.0314,0.0389,0.04,0.0277,0.0278,0.0278,0.0279,0,-0.0377,-0.0385,-0.0396,-0.0378,-0.035,-0.0349,-0.0277,-0.0247,-0.0196,-0.0138,-0.0075,0.0016,0.0097,0.012,0.0163,0.0216,0.0245,0.0279,0.0323,0.0308,0.0389,0.0402,0.0271,0.0272,0.0274,0.0275,0,0,-0.0463,-0.045,-0.0453,-0.0458,-0.0401,-0.0386,-0.0358,-0.0303,-0.0275,-0.0201,-0.0154,-0.0068,-0.0006,0.0042,0.0114,0.018,0.0248,0.0225,0.0232,0.029,0.0421,0.0482,0.0503,0.0286,0.0288,0.029,0.0467,0,-0.0535,-0.0588,-0.0544,-0.057,-0.0587,-0.0496,-0.0473,-0.0405,-0.0331,-0.0265,-0.0153,-0.0088,-0.0036,0.0003,0.0078,0.0209,0.0278,0.0196,0.0434,0.0441,0.0491,0.0519,0.0563,0.0728,0.048,0.0482,0.0484,0,-0.0611,-0.0637,-0.0688,-0.0665,-0.0659,-0.0651,-0.0581,-0.0549,-0.0428,-0.0367,-0.027,-0.0173,-0.0053,-0.0015,0.0203,0.0145,0.0264,0.0361,0.0371,0.047,0.0527,0.0706,0.0762,0.0946,0.0505,0.0504,0.0502,0,-0.0705,-0.0725,-0.0771,-0.0765,-0.073,-0.0721,-0.0689,-0.0587,-0.0547,-0.0425,-0.0378,-0.0217,-0.0126,0.0036,0.0246,0.0226,0.0484,0.05,0.0666,0.0672,0.0779,0.0791,0.1036,0.064,0.064,0.0639,0.0639,0,-0.0795,-0.0825,-0.0822,-0.0847,-0.0881,-0.0812,-0.0805,-0.0745,-0.0643,-0.0574,-0.0442,-0.0348,-0.0113,0.0072,0.0243,0.0508,0.0499,0.0666,0.0728,0.0746,0.0753,0.0973,0.1039,0.0646,0.0645,0.0643,0.0642,0,-0.0884,-0.0887,-0.0937,-0.0931,-0.0931,-0.0951,-0.0897,-0.0872,-0.0778,-0.0681,-0.0643,-0.0427,-0.0174,0.0066,0.0364,0.0519,0.0884,0.0843,0.0843,0.0901,0.1213,0.127,0.1556,0.1684,0.106,0.1063,0.1065,0,-0.0933,-0.0976,-0.1012,-0.1041,-0.1042,-0.1054,-0.1047,-0.0957,-0.0901,-0.0709,-0.0653,-0.0409,-0.0174,0.0268,0.0575,0.0909,0.1023,0.1118,0.1091,0.1251,0.1361,0.1382,0.1469,0.1199,0.1203,0.1205,0.1207,0,-0.1017,-0.1029,-0.1072,-0.1127,-0.1146,-0.1148,-0.1116,-0.1077,-0.0922,-0.0787,-0.0552,-0.0356,0.0034,0.0459,0.0854,0.1034,0.1266,0.1181,0.1365,0.1506,0.153,0.1675,0.105,0.123,0.1228,0.1226,0.1225,0.1224,-0.106,-0.1105,-0.1139,-0.1179,-0.1201,-0.1152,-0.1103,-0.1003,-0.0835,-0.0525,-0.0407,0.0001,0.0366,0.0948,0.116,0.1569,0.15,0.1673,0.1734,0.1745,0.1856,0.127,0.1503,0.1502,0.1502,0.1501,0.1501,0,-0.1053,-0.1098,-0.1167,-0.1175,-0.1161,-0.1162,-0.1068,-0.0946,-0.0676,-0.037,-0.0063,0.0552,0.1036,0.1392,0.1888,0.2111,0.2157,0.2197,0.2246,0.2315,0.1831,0.1824,0.2115,0.2115,0.2115,0.2115,0.2115,0.2114,-0.1044,-0.1084,-0.111,-0.1082,-0.1082,-0.0981,-0.0889,-0.069,-0.0447,0.011,0.0571,0.0864,0.1325,0.2081,0.2561,0.2595,0.2805,0.2758,0.2887,0.2547,0.2502,0.2459,0.2471,0.2893,0.2894,0.3353,0.3357,0.3361]}],[{"header":{"parameterUnit":"m.s-1","parameterCategory":2,"la1":30.2991,"la2":30.254,"lo1":-89.0895,"lo2":-89.0444,"dy":0.0017,"dx":0.0017,"nx":28,"ny":28,"refTime":"2024-05-25T21:00:00:Z","depth":"2","parameterNumber":2,"parameterNumberName":"U-component_of_CURRENTS"},"data":[0,0,0,0,0,0,0,0,0,0,0,0,0,0,0,0,0,0,0,0,0,0,0,0,0,0,0,0,0,0,0,0,0,0,0,0,0,0,0,0,0,0,0,0,0,0,0,0,0,0,0,0,0,0,0,0,0,0,-0.2715,-0.2716,0,-0.2763,-0.2763,-0.2764,-0.2749,-0.2748,-0.2747,-0.2747,-0.273,-0.273,-0.273,0,0,0,0,0,0,0,0,0,0,0,0,0,-0.2599,-0.2601,-0.2715,-0.2716,-0.2717,-0.2763,-0.2763,-0.2764,-0.2749,-0.2748,-0.2747,-0.2746,-0.273,-0.273,-0.273,0,0,0,0,0,0,0,0,0,0,0,0,0,-0.2645,-0.2602,-0.2715,-0.2717,-0.2718,-0.2763,-0.2763,-0.2764,-0.2749,-0.2748,-0.2747,-0.2746,-0.273,-0.273,-0.273,-0.2753,0,0,-0.2731,-0.2732,0,0,0,0,0,0,0,0,-0.2643,-0.2649,-0.2716,-0.2717,-0.2719,-0.2752,-0.2717,-0.2758,-0.2749,-0.2734,-0.2747,-0.2745,-0.2734,-0.2734,-0.2742,-0.2752,-0.2752,-0.2731,-0.2732,-0.2732,-0.2732,0,0,0,0,0,0,0,-0.2639,-0.2647,-0.273,-0.2717,-0.2719,-0.2713,-0.2718,-0.2724,-0.2735,-0.2735,-0.2735,-0.2746,-0.2734,-0.2741,-0.2741,-0.2751,-0.2731,-0.2732,-0.2732,-0.2732,-0.2789,-0.279,0,0,0,0,0,0,-0.2643,-0.2644,-0.2729,-0.2732,-0.2681,-0.2716,-0.2722,-0.2739,-0.2737,-0.2737,-0.2747,-0.2746,-0.2741,-0.2741,-0.274,-0.2777,-0.2732,-0.2732,-0.2732,-0.2788,-0.279,-0.2791,0,0,0,0,0,0,-0.264,-0.265,-0.2727,-0.2691,-0.2701,-0.272,-0.2739,-0.2741,-0.2751,-0.2747,-0.2745,-0.2756,-0.274,-0.274,-0.2756,-0.2776,-0.2732,-0.2732,-0.2786,-0.2788,-0.279,-0.2844,0,0,0,0,0,0,-0.2637,-0.2649,-0.266,-0.2692,-0.2703,-0.2759,-0.2741,-0.2743,-0.2762,-0.276,-0.2755,-0.2752,-0.274,-0.2756,-0.2756,-0.2775,-0.2733,-0.2785,-0.2787,-0.279,-0.2841,-0.2848,-0.2854,0,0,0,0,0,-0.2633,-0.2654,-0.266,-0.267,-0.2719,-0.276,-0.2765,-0.2771,-0.2763,-0.2775,-0.2773,-0.2752,-0.2771,-0.2757,-0.2757,-0.2777,-0.2783,-0.2786,-0.2789,-0.2838,-0.2846,-0.2853,0,0,0,0,0,0,-0.2606,-0.2656,-0.2663,-0.2697,-0.2729,-0.2759,-0.2771,-0.2779,-0.2789,-0.2785,-0.2772,-0.277,-0.279,-0.2781,-0.2766,-0.2802,-0.2773,-0.2777,-0.281,-0.2818,-0.2824,-0.2818,-0.2733,0,0,0,0,0,-0.2609,-0.2636,-0.2681,-0.2706,-0.2725,-0.2749,-0.2765,-0.2776,-0.2793,-0.2796,-0.2794,-0.2795,-0.2805,-0.2808,-0.2812,-0.2835,-0.2811,-0.2848,-0.2855,-0.286,-0.2856,-0.2848,-0.2853,-0.2801,-0.2801,-0.2801,0,0,-0.2602,-0.2635,-0.2648,-0.2702,-0.2723,-0.2764,-0.2755,-0.2789,-0.2818,-0.2793,-0.2821,-0.2817,-0.2816,-0.2841,-0.2849,-0.2834,-0.2863,-0.2864,-0.2869,-0.2862,-0.2851,-0.2856,-0.286,-0.2803,-0.2803,-0.2802,0,0,-0.2613,-0.2638,-0.2667,-0.2704,-0.2751,-0.2773,-0.2787,-0.2825,-0.2834,-0.287,-0.2857,-0.2868,-0.2884,-0.2887,-0.2891,-0.2938,-0.2897,-0.2939,-0.2968,-0.296,-0.2964,-0.2967,-0.294,-0.294,-0.2943,-0.2943,-0.2944,0,-0.26,-0.2652,-0.268,-0.2727,-0.2757,-0.2781,-0.2823,-0.2847,-0.2883,-0.2893,-0.2884,-0.2909,-0.2908,-0.2935,-0.2951,-0.2952,-0.293,-0.2937,-0.2967,-0.297,-0.2972,-0.2943,-0.2943,-0.2946,-0.2946,-0.2946,-0.2945,0,-0.2642,-0.2685,-0.2707,-0.2773,-0.2808,-0.2848,-0.2893,-0.2919,-0.2932,-0.295,-0.2976,-0.2976,-0.2984,-0.2994,-0.2988,-0.3008,-0.2982,-0.2975,-0.2944,-0.298,-0.2948,-0.2946,-0.2951,-0.295,-0.2949,-0.2948,0,0,-0.2599,-0.2714,-0.2718,-0.2758,-0.2838,-0.2866,-0.2923,-0.2972,-0.2996,-0.3021,-0.3044,-0.3067,-0.3051,-0.3055,-0.3046,-0.3044,-0.3045,-0.3017,-0.3016,-0.2983,-0.3009,-0.2908,-0.2896,-0.3039,-0.304,-0.304,-0.298,0,-0.2617,-0.2706,-0.2761,-0.2832,-0.2879,-0.2928,-0.2976,-0.3021,-0.3046,-0.3072,-0.3078,-0.3093,-0.3081,-0.3079,-0.3079,-0.3057,-0.3043,-0.306,-0.2984,-0.2982,-0.2882,-0.2892,-0.2686,-0.2607,-0.2978,-0.2977,-0.2977,0,-0.2627,-0.2692,-0.277,-0.2866,-0.2888,-0.2931,-0.2994,-0.3041,-0.309,-0.3109,-0.3125,-0.3124,-0.3135,-0.3111,-0.3085,-0.3094,-0.3052,-0.3028,-0.3025,-0.2908,-0.2877,-0.2632,-0.259,-0.2974,-0.2974,-0.2974,-0.2974,0,-0.2568,-0.2685,-0.2744,-0.2781,-0.2898,-0.2928,-0.2976,-0.3039,-0.3073,-0.3118,-0.3134,-0.3149,-0.3142,-0.3116,-0.3069,-0.3077,-0.3021,-0.3026,-0.289,-0.2882,-0.2678,-0.2652,-0.2989,-0.2989,-0.2989,-0.2989,-0.2989,0,-0.2557,-0.2597,-0.2719,-0.2752,-0.2803,-0.2894,-0.2937,-0.2989,-0.3059,-0.3085,-0.3131,-0.3131,-0.3141,-0.3112,-0.3073,-0.2966,-0.3019,-0.2884,-0.2859,-0.2691,-0.2668,-0.2966,-0.2964,-0.2987,-0.2987,-0.2988,-0.2988,0,-0.2469,-0.2562,-0.2623,-0.2744,-0.2776,-0.2799,-0.2904,-0.2938,-0.3015,-0.3049,-0.3063,-0.3113,-0.3068,-0.3053,-0.3001,-0.2946,-0.2874,-0.2816,-0.261,-0.2561,-0.2741,-0.2743,-0.2668,-0.2664,-0.2661,-0.2658,-0.2655,0,-0.2429,-0.2459,-0.2575,-0.2597,-0.2646,-0.2708,-0.2756,-0.2883,-0.2924,-0.3015,-0.3018,-0.3013,-0.2957,-0.2853,-0.2764,-0.266,-0.275,-0.2415,-0.2396,-0.2725,-0.2708,-0.2716,-0.2722,-0.2147,-0.2141,-0.2135,-0.2131,0,-0.2327,-0.2367,-0.2411,-0.2455,-0.2508,-0.2569,-0.2647,-0.2682,-0.2821,-0.2864,-0.2861,-0.2826,-0.274,-0.2534,-0.2425,-0.2342,-0.2424,-0.2304,-0.2687,-0.2267,-0.223,-0.2215,-0.2239,-0.2084,-0.2089,-0.2092,-0.2095,-0.2097,-0.221,-0.2197,-0.2239,-0.2266,-0.2332,-0.2363,-0.2354,-0.2478,-0.2516,-0.2542,-0.2605,-0.2479,-0.2447,-0.215,-0.204,-0.1951,-0.2113,-0.2018,-0.2035,-0.2058,-0.2015,-0.1974,-0.1772,-0.1775,-0.1777,-0.1779,-0.1781,0,-0.203,-0.2028,-0.2043,-0.2057,-0.2044,-0.2153,-0.2224,-0.2179,-0.2182,-0.2262,-0.2226,-0.1935,-0.1797,-0.1767,-0.1565,-0.1534,-0.1534,-0.1463,-0.1469,-0.1515,-0.1556,-0.149,-0.1106,-0.1105,-0.1103,-0.1101,0,0,-0.1924,-0.1852,-0.1858,-0.1745,-0.1768,-0.1681,-0.1686,-0.1699,-0.1704,-0.1661,-0.1625,-0.17,-0.1699,-0.1404,-0.1341,-0.1191,-0.1339,-0.1125,-0.1662,-0.1712,-0.1751,-0.1865,-0.1812,0,0,0,0,0]},{"header":{"parameterUnit":"m.s-1","parameterCategory":2,"la1":30.2991,"la2":30.254,"lo1":-89.0895,"lo2":-89.0444,"dy":0.0017,"dx":0.0017,"nx":28,"ny":28,"refTime":"2024-05-25T21:00:00:Z","depth":"2","parameterNumber":3,"parameterNumberName":"V-component_of_CURRENTS"},"data":[0,0,0,0,0,0,0,0,0,0,0,0,0,0,0,0,0,0,0,0,0,0,0,0,0,0,0,0,0,0,0,0,0,0,0,0,0,0,0,0,0,0,0,0,0,0,0,0,0,0,0,0,0,0,0,0,0,0,-0.0194,-0.0193,0,-0.0087,-0.0085,-0.0084,-0.001,-0.0009,-0.0009,-0.0009,0.0133,0.0136,0.0139,0,0,0,0,0,0,0,0,0,0,0,0,0,-0.0271,-0.027,-0.0194,-0.0193,-0.0191,-0.0087,-0.0085,-0.0084,-0.001,-0.0009,-0.0009,-0.0008,0.0132,0.0136,0.014,0,0,0,0,0,0,0,0,0,0,0,0,0,-0.0207,-0.027,-0.0194,-0.0143,-0.0138,-0.0087,-0.0085,-0.0083,-0.001,-0.0009,-0.0009,-0.0008,0.013,0.0135,0.014,0.0159,0,0,0.0156,0.0158,0,0,0,0,0,0,0,0,-0.021,-0.0204,-0.0152,-0.0147,-0.014,-0.0062,-0.006,-0.0001,-0.001,-0.0057,-0.0008,-0.0008,0.0069,0.0079,0.01,0.0166,0.0172,0.0156,0.0159,0.0162,0.0163,0,0,0,0,0,0,0,-0.0215,-0.0208,-0.015,-0.0151,-0.0144,-0.0104,-0.0095,-0.0049,0.0003,-0.0053,-0.0047,-0.0038,0.0073,0.0095,0.0104,0.0174,0.0156,0.0161,0.0164,0.0166,0.0285,0.0285,0,0,0,0,0,0,-0.0235,-0.0212,-0.0153,-0.0147,-0.0176,-0.0104,-0.0093,-0.0087,0.0002,0.0016,-0.0039,-0.0035,0.0086,0.0098,0.0109,0.0143,0.0161,0.0166,0.0169,0.0285,0.0285,0.0286,0,0,0,0,0,0,-0.0238,-0.0231,-0.0157,-0.0178,-0.0166,-0.0103,-0.0097,-0.0085,-0.0062,0.0012,0.0027,-0.0029,0.0087,0.0102,0.015,0.0149,0.0168,0.0173,0.0285,0.0285,0.0285,0.0207,0,0,0,0,0,0,-0.024,-0.0233,-0.0238,-0.018,-0.0166,-0.0137,-0.0097,-0.0083,-0.0058,-0.0053,0.0025,0.0039,0.0089,0.0142,0.0155,0.0156,0.0177,0.0285,0.0285,0.0285,0.0209,0.0205,0.02,0,0,0,0,0,-0.0243,-0.0256,-0.0239,-0.0232,-0.0174,-0.0138,-0.0127,-0.0079,-0.0059,-0.0055,0.0001,0.0037,0.0153,0.0146,0.0161,0.0164,0.0285,0.0285,0.0285,0.0212,0.0206,0.02,0,0,0,0,0,0,-0.0293,-0.0248,-0.0228,-0.0227,-0.019,-0.0126,-0.0121,-0.0086,-0.0039,-0.0034,0.0038,0.0056,0.0093,0.0141,0.0131,0.02,0.0225,0.0228,0.0164,0.0159,0.0154,0.013,0.0181,0,0,0,0,0,-0.0308,-0.0306,-0.0254,-0.0254,-0.024,-0.0182,-0.0162,-0.013,-0.0079,-0.0058,-0.0002,0.0058,0.0106,0.0141,0.0185,0.0227,0.0276,0.024,0.0236,0.0231,0.0223,0.0298,0.0299,0.0287,0.0287,0.0287,0,0,-0.0328,-0.0304,-0.0302,-0.0265,-0.0233,-0.0219,-0.0168,-0.0146,-0.0128,-0.005,-0.0014,0.0036,0.011,0.0151,0.0174,0.0194,0.0261,0.0232,0.0227,0.0222,0.0298,0.03,0.0301,0.0287,0.0287,0.0287,0,0,-0.0373,-0.0346,-0.0361,-0.0333,-0.0293,-0.0253,-0.0252,-0.0192,-0.0159,-0.012,-0.0061,-0.0007,0.0065,0.0126,0.0164,0.0164,0.0223,0.0174,0.0146,0.0218,0.022,0.0222,0.0281,0.0289,0.0185,0.0185,0.0185,0,-0.0402,-0.0408,-0.036,-0.0362,-0.0344,-0.0275,-0.028,-0.0237,-0.0168,-0.0139,-0.0121,-0.0003,0.0056,0.0124,0.012,0.0154,0.0195,0.0158,0.0211,0.0214,0.0217,0.0278,0.0288,0.0181,0.0181,0.0182,0.0182,0,-0.045,-0.0453,-0.0459,-0.0437,-0.041,-0.0404,-0.0337,-0.0307,-0.0261,-0.0209,-0.0145,-0.0059,0.0016,0.0042,0.008,0.0134,0.0155,0.0185,0.022,0.0214,0.0278,0.029,0.0176,0.0177,0.0178,0.0179,0,0,-0.0521,-0.05,-0.0503,-0.0504,-0.0448,-0.0431,-0.04,-0.0346,-0.0321,-0.0247,-0.0204,-0.0115,-0.0063,-0.0017,0.0049,0.0112,0.017,0.0146,0.0152,0.0195,0.0316,0.0358,0.0375,0.0204,0.0205,0.0206,0.035,0,-0.0576,-0.0612,-0.057,-0.0584,-0.0594,-0.0513,-0.0488,-0.0425,-0.0359,-0.0299,-0.0194,-0.0134,-0.0084,-0.0049,0.0021,0.0133,0.0196,0.0127,0.0325,0.033,0.036,0.0388,0.0341,0.0467,0.0362,0.0364,0.0365,0,-0.0636,-0.0652,-0.0689,-0.0661,-0.0654,-0.0643,-0.058,-0.0546,-0.0438,-0.0385,-0.0295,-0.021,-0.0099,-0.0063,0.0129,0.0079,0.0181,0.0267,0.0276,0.0348,0.0394,0.0459,0.0492,0.0385,0.0383,0.0382,0.038,0,-0.0721,-0.0726,-0.076,-0.0751,-0.0712,-0.0703,-0.0671,-0.0581,-0.0544,-0.0436,-0.0394,-0.025,-0.017,-0.0026,0.0158,0.0143,0.0365,0.0381,0.0516,0.052,0.0537,0.054,0.0507,0.0507,0.0507,0.0506,0.0506,0,-0.0796,-0.0818,-0.0807,-0.0826,-0.0853,-0.0786,-0.0779,-0.0725,-0.0633,-0.0579,-0.0449,-0.0368,-0.0161,-0.0001,0.0151,0.0377,0.0374,0.0516,0.0566,0.0509,0.0508,0.048,0.0475,0.0512,0.051,0.0509,0.0508,0,-0.0882,-0.0876,-0.0915,-0.0902,-0.09,-0.0919,-0.0866,-0.0848,-0.0754,-0.0678,-0.0645,-0.0447,-0.0232,-0.0018,0.0239,0.0376,0.0582,0.0657,0.0569,0.0607,0.0685,0.0674,0.0825,0.0828,0.083,0.0832,0.0834,0,-0.0929,-0.0965,-0.099,-0.1024,-0.1024,-0.1032,-0.1029,-0.0933,-0.0891,-0.0711,-0.0672,-0.0456,-0.0267,0.0122,0.0388,0.0675,0.0655,0.0783,0.0755,0.0687,0.0721,0.0706,0.0693,0.0746,0.0747,0.0747,0.0748,0,-0.1017,-0.1025,-0.1063,-0.1147,-0.1168,-0.1179,-0.1155,-0.1138,-0.0993,-0.0881,-0.0688,-0.0519,-0.0132,0.0193,0.0545,0.0694,0.0734,0.0807,0.0785,0.0668,0.0624,0.0653,0.064,0.0754,0.0753,0.0753,0.0753,0.0752,-0.1077,-0.1135,-0.1193,-0.1261,-0.1295,-0.1318,-0.1319,-0.1246,-0.1154,-0.0964,-0.0743,-0.0452,-0.0113,0.0389,0.0651,0.0854,0.0847,0.0885,0.0878,0.0872,0.0832,0.0794,0.0948,0.0949,0.0949,0.095,0.095,0,-0.1155,-0.1216,-0.1299,-0.1377,-0.1425,-0.1414,-0.1386,-0.1334,-0.1218,-0.0992,-0.0754,-0.033,0.0048,0.0369,0.0726,0.0962,0.092,0.0961,0.0867,0.086,0.0854,0.0809,0.0922,0.0923,0.0924,0.0924,0,0,-0.1203,-0.1301,-0.1343,-0.1458,-0.1509,-0.1528,-0.1509,-0.1402,-0.1226,-0.0976,-0.0731,-0.0408,0.0052,0.0304,0.0591,0.0768,0.074,0.0761,0.0756,0.0603,0.0594,0.0782,0.0702,0,0,0,0,0]}],[{"header":{"parameterUnit":"m.s-1","parameterCategory":2,"la1":30.2991,"la2":30.254,"lo1":-89.0895,"lo2":-89.0444,"dy":0.0017,"dx":0.0017,"nx":28,"ny":28,"refTime":"2024-05-25T21:00:00:Z","depth":"4","parameterNumber":2,"parameterNumberName":"U-component_of_CURRENTS"},"data":[0,0,0,0,0,0,0,0,0,0,0,0,0,0,0,0,0,0,0,0,0,0,0,0,0,0,0,0,0,0,0,0,0,0,0,0,0,0,0,0,0,0,0,0,0,0,0,0,0,0,0,0,0,0,0,0,0,0,-0.1924,-0.1925,0,-0.2016,-0.2017,-0.2018,-0.207,-0.2071,-0.2071,-0.2071,-0.2148,-0.215,-0.2151,0,0,0,0,0,0,0,0,0,0,0,0,0,-0.1789,-0.1791,-0.1924,-0.1925,-0.1927,-0.2016,-0.2017,-0.2018,-0.207,-0.2071,-0.2071,-0.2072,-0.2148,-0.215,-0.2152,0,0,0,0,0,0,0,0,0,0,0,0,0,-0.1859,-0.1792,-0.1924,-0.1965,-0.197,-0.2016,-0.2017,-0.2018,-0.207,-0.2071,-0.2071,-0.2072,-0.2147,-0.2149,-0.2152,-0.2155,0,0,-0.216,-0.2161,0,0,0,0,0,0,0,0,-0.1855,-0.1863,-0.1958,-0.1962,-0.1968,-0.2034,-0.1998,-0.2064,-0.207,-0.203,-0.2071,-0.2072,-0.211,-0.2115,-0.2128,-0.2159,-0.2162,-0.216,-0.2161,-0.2162,-0.2163,0,0,0,0,0,0,0,-0.185,-0.186,-0.1958,-0.1959,-0.1965,-0.1978,-0.1988,-0.2011,-0.2063,-0.2033,-0.2038,-0.2052,-0.2112,-0.2126,-0.213,-0.2163,-0.216,-0.2162,-0.2163,-0.2164,-0.2294,-0.2296,0,0,0,0,0,0,-0.1843,-0.1855,-0.1955,-0.1961,-0.1914,-0.198,-0.1992,-0.201,-0.2063,-0.2073,-0.2051,-0.2054,-0.2121,-0.2127,-0.2133,-0.2227,-0.2162,-0.2165,-0.2166,-0.2292,-0.2295,-0.2297,0,0,0,0,0,0,-0.184,-0.1851,-0.1951,-0.1912,-0.1926,-0.1982,-0.2003,-0.2012,-0.2062,-0.2078,-0.2086,-0.2095,-0.2122,-0.213,-0.219,-0.2227,-0.2166,-0.2168,-0.229,-0.2293,-0.2296,-0.2358,0,0,0,0,0,0,-0.1836,-0.185,-0.1877,-0.1912,-0.1928,-0.2003,-0.2003,-0.2014,-0.2068,-0.2074,-0.2118,-0.2124,-0.2123,-0.2186,-0.2192,-0.2229,-0.217,-0.2288,-0.2291,-0.2295,-0.2354,-0.2363,-0.2371,0,0,0,0,0,-0.1831,-0.1861,-0.1878,-0.1891,-0.1958,-0.2005,-0.2015,-0.2054,-0.207,-0.21,-0.2134,-0.2124,-0.2213,-0.219,-0.2197,-0.2235,-0.2286,-0.229,-0.2295,-0.235,-0.2361,-0.2371,0,0,0,0,0,0,-0.1819,-0.1871,-0.1889,-0.1936,-0.1979,-0.2015,-0.2051,-0.2076,-0.2126,-0.2142,-0.2151,-0.216,-0.2223,-0.2225,-0.2199,-0.2284,-0.2247,-0.2253,-0.2287,-0.2298,-0.2306,-0.2291,-0.2172,0,0,0,0,0,-0.1828,-0.1866,-0.1912,-0.1953,-0.1977,-0.2021,-0.2051,-0.208,-0.2122,-0.2147,-0.2177,-0.2211,-0.2241,-0.2267,-0.2291,-0.2342,-0.2316,-0.2371,-0.2379,-0.2386,-0.238,-0.2378,-0.2385,-0.2311,-0.2311,-0.2311,0,0,-0.1835,-0.1869,-0.1892,-0.1954,-0.199,-0.2038,-0.2042,-0.2101,-0.2147,-0.2145,-0.2226,-0.2244,-0.2261,-0.2317,-0.2345,-0.2328,-0.2395,-0.2392,-0.2398,-0.2387,-0.2383,-0.239,-0.2396,-0.2314,-0.2314,-0.2313,0,0,-0.1858,-0.19,-0.1938,-0.1981,-0.2046,-0.2073,-0.2099,-0.2158,-0.2196,-0.2268,-0.2274,-0.2318,-0.2376,-0.239,-0.2403,-0.2475,-0.2438,-0.249,-0.2525,-0.2524,-0.2529,-0.2534,-0.2509,-0.2511,-0.2497,-0.2497,-0.2497,0,-0.1867,-0.1921,-0.1957,-0.2007,-0.2048,-0.2094,-0.2145,-0.219,-0.2264,-0.2293,-0.2306,-0.2386,-0.2407,-0.2454,-0.2482,-0.2493,-0.2475,-0.2484,-0.2533,-0.2537,-0.254,-0.2514,-0.2515,-0.25,-0.25,-0.25,-0.2499,0,-0.1909,-0.1969,-0.1997,-0.2073,-0.212,-0.2175,-0.2234,-0.2291,-0.2341,-0.2375,-0.2446,-0.2473,-0.2512,-0.2534,-0.2534,-0.2574,-0.2548,-0.254,-0.25,-0.2551,-0.2521,-0.252,-0.2505,-0.2504,-0.2503,-0.2502,0,0,-0.1882,-0.2004,-0.2017,-0.2065,-0.2163,-0.2199,-0.2284,-0.2356,-0.2403,-0.2473,-0.2523,-0.2584,-0.259,-0.2604,-0.2609,-0.2615,-0.2631,-0.2594,-0.2592,-0.2557,-0.2611,-0.2435,-0.2417,-0.2631,-0.2631,-0.2632,-0.2579,0,-0.1906,-0.2002,-0.206,-0.2155,-0.2207,-0.2278,-0.2344,-0.2416,-0.2475,-0.2534,-0.2568,-0.2617,-0.2619,-0.2639,-0.265,-0.2637,-0.2633,-0.2644,-0.2577,-0.2574,-0.2402,-0.2412,-0.2633,-0.2579,-0.2579,-0.2579,-0.2578,0,-0.1917,-0.1986,-0.2083,-0.2194,-0.2223,-0.2287,-0.2387,-0.2452,-0.2537,-0.2581,-0.2631,-0.2653,-0.2689,-0.2676,-0.2672,-0.2679,-0.2649,-0.263,-0.2628,-0.2436,-0.2397,-0.252,-0.2577,-0.2577,-0.2577,-0.2577,-0.2578,0,-0.1859,-0.1992,-0.207,-0.2113,-0.2248,-0.2304,-0.2372,-0.2468,-0.2519,-0.2605,-0.2638,-0.2683,-0.2702,-0.2689,-0.2662,-0.2672,-0.2628,-0.2636,-0.2444,-0.2431,-0.2579,-0.2575,-0.2614,-0.2614,-0.2614,-0.2614,-0.2614,0,-0.184,-0.1904,-0.2056,-0.2099,-0.2181,-0.2283,-0.2365,-0.2436,-0.2531,-0.2569,-0.265,-0.2655,-0.2706,-0.269,-0.2662,-0.2534,-0.2627,-0.2432,-0.24,-0.2608,-0.2608,-0.2578,-0.2574,-0.2612,-0.2613,-0.2613,-0.2613,0,-0.1754,-0.1864,-0.1954,-0.2108,-0.2158,-0.2212,-0.2353,-0.2399,-0.2503,-0.2552,-0.2579,-0.2642,-0.2602,-0.2615,-0.2581,-0.2503,-0.2423,-0.2354,-0.2558,-0.2542,-0.2229,-0.2231,-0.2132,-0.2125,-0.212,-0.2115,-0.2111,0,-0.1715,-0.176,-0.1931,-0.1974,-0.2049,-0.2152,-0.2216,-0.2363,-0.2402,-0.2506,-0.2501,-0.2515,-0.2529,-0.2322,-0.2367,-0.2279,-0.2254,-0.221,-0.2231,-0.2198,-0.2178,-0.2188,-0.2197,-0.2102,-0.21,-0.2099,-0.2097,0,-0.1622,-0.1698,-0.1763,-0.1855,-0.194,-0.2017,-0.2117,-0.2134,-0.2277,-0.2412,-0.2338,-0.2294,-0.2233,-0.2181,-0.2121,-0.207,-0.2243,-0.215,-0.2162,-0.2181,-0.216,-0.2148,-0.2163,-0.2077,-0.208,-0.2082,-0.2083,0,-0.153,-0.1544,-0.1628,-0.169,-0.1791,-0.1817,-0.1908,-0.1943,-0.2002,-0.2146,-0.2111,-0.2122,-0.2198,-0.2068,-0.2017,-0.1945,-0.1921,-0.1875,-0.1901,-0.1924,-0.1879,-0.1823,-0.1589,0,0,0,0,0,-0.1422,-0.1406,-0.145,-0.1501,-0.1597,-0.1645,-0.18,-0.1897,-0.2064,-0.1958,-0.2027,-0.1959,-0.1864,-0.1872,-0.1747,-0.1919,-0.193,-0.1769,-0.1892,-0.1967,-0.199,-0.1957,0,0,0,0,0,0,-0.1337,-0.1361,-0.1378,-0.1323,-0.132,-0.1398,-0.1487,-0.1613,-0.1568,-0.174,-0.1685,-0.1824,-0.1747,-0.1872,-0.1689,-0.1697,-0.1733,-0.1807,-0.1802,-0.1954,-0.1975,-0.1993,-0.1967,0,0,0,0,0]},{"header":{"parameterUnit":"m.s-1","parameterCategory":2,"la1":30.2991,"la2":30.254,"lo1":-89.0895,"lo2":-89.0444,"dy":0.0017,"dx":0.0017,"nx":28,"ny":28,"refTime":"2024-05-25T21:00:00:Z","depth":"4","parameterNumber":3,"parameterNumberName":"V-component_of_CURRENTS"},"data":[0,0,0,0,0,0,0,0,0,0,0,0,0,0,0,0,0,0,0,0,0,0,0,0,0,0,0,0,0,0,0,0,0,0,0,0,0,0,0,0,0,0,0,0,0,0,0,0,0,0,0,0,0,0,0,0,0,0,-0.018,-0.018,0,-0.0106,-0.0105,-0.0104,-0.0055,-0.0055,-0.0054,-0.0054,0.006,0.0063,0.0066,0,0,0,0,0,0,0,0,0,0,0,0,0,-0.023,-0.0229,-0.018,-0.018,-0.0179,-0.0106,-0.0104,-0.0103,-0.0055,-0.0055,-0.0054,-0.0054,0.0059,0.0062,0.0066,0,0,0,0,0,0,0,0,0,0,0,0,0,-0.0186,-0.0229,-0.018,-0.0147,-0.0143,-0.0106,-0.0104,-0.0103,-0.0055,-0.0055,-0.0054,-0.0054,0.0058,0.0062,0.0066,0.0088,0,0,0.0079,0.0081,0,0,0,0,0,0,0,0,-0.0188,-0.0184,-0.0153,-0.0149,-0.0145,-0.0091,-0.008,-0.0038,-0.0055,-0.0087,-0.0054,-0.0054,0.0012,0.002,0.0035,0.0094,0.0098,0.008,0.0083,0.0084,0.0086,0,0,0,0,0,0,0,-0.0191,-0.0186,-0.0149,-0.0152,-0.0147,-0.0118,-0.0112,-0.0072,-0.0038,-0.0084,-0.0081,-0.0075,0.0015,0.0031,0.0038,0.01,0.008,0.0084,0.0086,0.0088,0.0205,0.0205,0,0,0,0,0,0,-0.0207,-0.019,-0.0151,-0.0147,-0.0168,-0.0118,-0.0111,-0.0107,-0.0039,-0.0029,-0.0075,-0.0073,0.0024,0.0033,0.0043,0.0079,0.0084,0.0088,0.0091,0.0204,0.0205,0.0205,0,0,0,0,0,0,-0.0208,-0.0204,-0.0154,-0.0168,-0.016,-0.0118,-0.0114,-0.0106,-0.009,-0.0033,-0.0022,-0.0069,0.0024,0.0037,0.0079,0.0083,0.009,0.0094,0.0203,0.0204,0.0205,0.0147,0,0,0,0,0,0,-0.021,-0.0205,-0.0211,-0.0169,-0.0159,-0.0138,-0.0114,-0.0104,-0.0088,-0.0084,-0.0024,-0.0013,0.0025,0.0072,0.0083,0.0089,0.0098,0.0203,0.0204,0.0205,0.0148,0.0145,0.0143,0,0,0,0,0,-0.0212,-0.022,-0.0211,-0.0207,-0.0167,-0.0139,-0.0131,-0.0099,-0.0088,-0.0084,-0.004,-0.0015,0.0086,0.0076,0.0089,0.0096,0.0202,0.0204,0.0205,0.0149,0.0146,0.0143,0,0,0,0,0,0,-0.0243,-0.0215,-0.0204,-0.0203,-0.0177,-0.0131,-0.0127,-0.0105,-0.0067,-0.0064,-0.0009,0.0005,0.0039,0.0079,0.0066,0.0134,0.0149,0.0153,0.0103,0.01,0.0098,0.0078,0.0101,0,0,0,0,0,-0.0255,-0.0255,-0.0219,-0.022,-0.021,-0.0171,-0.0157,-0.0134,-0.0096,-0.008,-0.0036,0.0013,0.0055,0.0085,0.0123,0.0164,0.0199,0.0179,0.0176,0.0174,0.0168,0.0229,0.0231,0.0209,0.0209,0.0209,0,0,-0.0268,-0.0253,-0.0253,-0.0227,-0.0205,-0.0193,-0.0161,-0.0145,-0.0129,-0.0073,-0.0041,-0.0001,0.0061,0.01,0.0121,0.0136,0.0199,0.0175,0.0172,0.0168,0.023,0.0232,0.0234,0.021,0.0209,0.0209,0,0,-0.0295,-0.0281,-0.0291,-0.0271,-0.0245,-0.0216,-0.0215,-0.0172,-0.0148,-0.0113,-0.007,-0.0024,0.0039,0.009,0.0123,0.0134,0.0174,0.0143,0.0127,0.0185,0.0187,0.019,0.0231,0.0237,0.0153,0.0153,0.0153,0,-0.0314,-0.0318,-0.0289,-0.0288,-0.0276,-0.0231,-0.0232,-0.0199,-0.0146,-0.0125,-0.0112,-0.0013,0.0037,0.0098,0.01,0.0128,0.0157,0.0129,0.0181,0.0184,0.0187,0.0229,0.0237,0.015,0.0151,0.0151,0.0151,0,-0.0341,-0.0345,-0.0349,-0.0334,-0.0315,-0.0309,-0.0262,-0.0239,-0.0208,-0.0169,-0.0114,-0.0043,0.0019,0.0044,0.0074,0.0125,0.0135,0.0159,0.0182,0.0185,0.023,0.0239,0.0147,0.0148,0.0148,0.0149,0,0,-0.0385,-0.0372,-0.0376,-0.0378,-0.0339,-0.0328,-0.0302,-0.0262,-0.0245,-0.0184,-0.0151,-0.0071,-0.0034,0.0006,0.0059,0.0114,0.0161,0.0137,0.0142,0.0166,0.0273,0.0256,0.0264,0.0188,0.0189,0.0191,0.0292,0,-0.0418,-0.0442,-0.0414,-0.0424,-0.0431,-0.0378,-0.0358,-0.0313,-0.0266,-0.0222,-0.0135,-0.0088,-0.0045,-0.0019,0.0042,0.0129,0.0183,0.013,0.0277,0.0281,0.0256,0.0274,0.0195,0.0299,0.0301,0.0303,0.0304,0,-0.0454,-0.0467,-0.0494,-0.0478,-0.0474,-0.0469,-0.043,-0.0402,-0.0324,-0.0285,-0.0215,-0.015,-0.0057,-0.0027,0.0129,0.0088,0.0168,0.0238,0.0244,0.0253,0.028,0.03,0.0321,0.0319,0.0318,0.0317,0.0316,0,-0.0512,-0.0516,-0.0545,-0.054,-0.0515,-0.0514,-0.0495,-0.0433,-0.0407,-0.0327,-0.0297,-0.0181,-0.0119,-0.0002,0.0142,0.0134,0.0307,0.0324,0.0387,0.0386,0.0396,0.0393,0.0429,0.0429,0.0428,0.0428,0.0428,0,-0.0555,-0.0577,-0.0581,-0.0598,-0.0628,-0.058,-0.0585,-0.0547,-0.0481,-0.0446,-0.034,-0.028,-0.0113,0.0011,0.0133,0.0286,0.0309,0.0382,0.0415,0.0369,0.0362,0.0402,0.0398,0.0432,0.0431,0.043,0.043,0,-0.0612,-0.0614,-0.0653,-0.0656,-0.0662,-0.0686,-0.0661,-0.0652,-0.0582,-0.0531,-0.0506,-0.035,-0.0191,-0.0021,0.0181,0.0272,0.0422,0.0471,0.0399,0.0426,0.0461,0.0453,0.0546,0.0546,0.0547,0.0547,0.0547,0,-0.0641,-0.0671,-0.0718,-0.0758,-0.0767,-0.0788,-0.0797,-0.0726,-0.0698,-0.0564,-0.0536,-0.0377,-0.0261,0.0016,0.0185,0.0413,0.0443,0.0515,0.0492,0.0453,0.0476,0.0467,0.0458,0.0548,0.0548,0.0548,0.0548,0,-0.0698,-0.0723,-0.076,-0.0854,-0.0889,-0.0911,-0.0906,-0.0887,-0.0779,-0.0709,-0.0545,-0.0378,-0.02,0.0012,0.0186,0.0353,0.0465,0.0518,0.0518,0.0498,0.0456,0.0476,0.0467,0.0549,0.0548,0.0548,0.0548,0,-0.0745,-0.0797,-0.0862,-0.0931,-0.0991,-0.1016,-0.1,-0.0925,-0.0869,-0.0685,-0.0631,-0.0407,-0.0259,-0.0018,0.015,0.0302,0.0336,0.038,0.0388,0.0389,0.031,0.0231,0.0284,0,0,0,0,0,-0.0783,-0.0845,-0.093,-0.1004,-0.1063,-0.1085,-0.106,-0.1015,-0.0895,-0.0787,-0.0697,-0.0515,-0.023,-0.0095,0.0051,0.0115,0.0326,0.0289,0.037,0.0553,0.0552,0.0483,0,0,0,0,0,0,-0.0814,-0.0901,-0.0941,-0.1042,-0.1098,-0.1144,-0.1129,-0.1051,-0.0961,-0.082,-0.0667,-0.0504,-0.0239,-0.0329,0.0041,0.0094,0.0162,0.0446,0.0449,0.0554,0.0553,0.0552,0.0481,0,0,0,0,0]}]]